Showing default

FLOCK 4Q 30, 58286

Orbit data source: Space-Track

FLOCK 4Q 30, 58286 is a payload satellite owned by Planet (US) in SSO that was launched on Sat, 11 Nov 2023 UTC via an FALCON 9 launch vehicle from the Air Force Western Test Range (AFWTR). Payload-class satellites include a variety of spacecraft equipped with specific instruments for various scientific and technological missions. These include communications satellites like Starlink; space stations such as the ISS; scientific satellites like the Hubble; Earth observation satellites from companies like Planet Labs, Umbra, and HawkEye 360; GPS; miniature CubeSats for education and research; and military/defense satellites.

Loading next visibility...
Identifier
58286, 2023-174AG
Orbit
SSO
Country
Flag of USUS
Related business
Manufacturer
Planet
Mission
Non-operational Commercial Imaging
Bus & Motor
CUBESAT 3U, Unknown motor
Mass
5.7 kg wet, 5.7 kg dry
Launch date (UTC)
2023-11-11 (3 years ago)
Launch vehicle
FALCON 9
Launch site
Air Force Western Test Range (AFWTR)
Object type
Payload
Rocket body
Debris
Shape & HBR
Box + 2 Pan, 1.0 m
Radar Cross Section
0.072 m², Medium (>0.1 m² and < 1m²)

Expand to show TLE details & history
Last TLE update: 9 hours ago

TLE from 9 hours ago
0 FLOCK 4Q 30
1 58286U 23174AG  26248.22487139  .00357145  00000-0  13086-2 0  9999
2 58286  97.3812 345.2246 0004693 248.0633 112.0139 15.87459037158364
Epoch: 2026-09-05T05:23Z
TLE epoch observation values (Epoch: 2026-09-05T05:23:48.888Z)
Latitude
-0.00009°
Longitude
-80.06649°
Altitude
313.77 km
Speed
7.719 km/s
True Right ascension
23h 00m 53s
True Declination
0° 00' 00"
Sunlit
Object was in full shadow at epoch
Visualization orbit readout
Latitude
Unknown
Longitude
Unknown
Altitude
Unknown
Speed
Unknown
Apparent Right ascension
Unknown
Apparent Declination
Unknown
Sunlit
N/A
Visualization observer readout
Local Sidereal Time
06:34:04
Azimuth
Unknown
Elevation
Unknown
Doppler factor
Unknown
Orbital elements
Apogee altitude
309.422 km
Perigee altitude
303.148 km
Semi-major axis
6,684.422 km
Eccentricity
0.00047
Inclination
97.3812°
RAAN
345.2246°
Arg. of periapsis
248.0633°
True anomaly
112.06375°
Mean anomaly
112.0139°
Eccentric anomaly
112.03882°
Mean motion
3.97143 °/min
Orbital period
90.65 mins
BSTAR
0.0013086
Loading maneuver chart data...
Computing Atmospheric mass density...
Loading historical data...
Loading historical data...
Loading historical data...
Loading historical data...
Loading historical data...
Loading historical data...
Loading historical data...

Documentation

Showing up to 5 results
|